C/2019 K1 ( ATLAS )

Japanese version
Home page
Updated on June 8, 2019

---------------------------------------------------------------------

* Profile

Discovery Date May 16, 2019
Magnitude 17.1 mag
Discoverer Asteroid Terrestrial-Impact Last Alert System (ATLAS) search program

* Orbital Elements

Epoch 2020 Feb. 1.0 TT = JDT 2458880.5
T 2020 Feb. 12.77097 TT                                 MPCW
q   2.0132561            (2000.0)            P               Q
z  -0.0008647      Peri.  265.65307     +0.02520800     +0.28880463
 +/-0.0014364      Node    73.37759     +0.31667654     +0.90574934
e   1.0017408      Incl.   87.18700     -0.94819857     +0.31017739
From 144 observations 2019 May 16-June 2, mean residual 0".6.

* Finding Charts

* Magnitudes Graph

        m1 = 9.5 + 5 log d + 10.0 log r

---------------------------------------------------------------------

The orbital elements are published on M.P.E.C. 2019-L24.
The charts are made with StellaNavigator Ver.10 (AstroArts).
The magnitudes graphs are made with Comet for Windows.

---------------------------------------------------------------------

Copyright(C) Seiichi Yoshida (comet@aerith.net). All rights reserved.